KUIPER-00555

导读

KUIPER-00555(NORAD编号69620)是美国亚马逊公司“柯伊伯计划”(Project Kuiper)低轨互联网星座的组成卫星。柯伊伯计划计划部署3232颗低轨卫星,为全球偏远乡村、海上等网络覆盖不足区域提供高带宽、低延迟的互联网接入服务,同时面向企业、政府机构提供通信支持,未来还将应用于航空机载互联等场景。 该卫星属于柯伊伯项目2025年9月之后发射的组网星,运行于约630公里高度的低地球轨道,轨道倾角约51.9度,轨道周期约97分钟,截至2026年6月处于正常在轨运行状态,是亚马逊推进全球卫星互联网组网的重要节点之一。

基本信息
目录编号:
69620
目录名称:
KUIPER-00555
国际标识:
2026-140AE
轨道中心:
EARTH
卫星名称:
KUIPER-00555
卫星全名:
KUIPER-00555
卫星状态:
在轨 (已飞行70 天)
发射日期:
2026-06-17 UTC
国别 :
美国 (US)
星等 :
--
轨道信息
数据来源 国际轨道数据
星历时间: 2026-08-26T05:35:45+0800
13小时前
查看轨道信息
半长轴: 6828.3km
偏心率: 0.0010135
轨道倾角: 51.884°
近地点辐角 61.600°
升交点赤经 61.252°
平近点角 298.600°
近地点: 443.242km
远地点: 457.084km
周期: 93.590分钟
每日圈数: 15.386289
详细信息
使用方式:
暂无
2D轨道图
3D轨道图
轨道高度分析图
轨道倾角分析图
轨道综合分析图
查看轨道综合分析图